| time (UTC) | temp C | wind direction | speed KPH | gust KPH | rain 1hr cm | rain 24hr cm | rain mn cm | humidity % | barometer mb |
| 20260831194051 | 19 | 246 | 4.8 | 12.9 | 0.00 | 1.14 | 0.48 | 78 | 1014.8 |
| 20260831193550 | 19 | 247 | 4.8 | 9.7 | 0.00 | 1.14 | 0.48 | 78 | 1014.8 |
| 20260831192051 | 19 | 247 | 3.2 | 11.3 | 0.00 | 1.14 | 0.48 | 77 | 1014.6 |
| 20260831191550 | 19 | 236 | 4.8 | 16.1 | 0.00 | 1.14 | 0.48 | 77 | 1014.6 |
| 20260831191051 | 19 | 261 | 4.8 | 12.9 | 0.00 | 1.14 | 0.48 | 77 | 1014.4 |
| 20260831190050 | 20 | 249 | 4.8 | 11.3 | 0.00 | 1.14 | 0.48 | 76 | 1014.3 |
| 20260831185550 | 20 | 264 | 8.0 | 11.3 | 0.00 | 1.14 | 0.48 | 76 | 1014.3 |
| 20260831184051 | 20 | 259 | 6.4 | 14.5 | 0.00 | 1.14 | 0.48 | 76 | 1014.2 |
| 20260831183550 | 20 | 297 | 4.8 | 16.1 | 0.00 | 1.14 | 0.48 | 75 | 1014.0 |
| 20260831182550 | 20 | 243 | 4.8 | 20.9 | 0.00 | 1.14 | 0.48 | 75 | 1013.8 |
| 20260831182051 | 20 | 256 | 6.4 | 24.1 | 0.00 | 1.14 | 0.48 | 74 | 1013.8 |
| 20260831175051 | 20 | 253 | 9.7 | 20.9 | 0.00 | 1.14 | 0.48 | 74 | 1013.4 |
| 20260831174550 | 20 | 270 | 9.7 | 20.9 | 0.00 | 1.14 | 0.48 | 74 | 1013.3 |
| 20260831171551 | 20 | 287 | 8.0 | 24.1 | 0.00 | 1.14 | 0.48 | 72 | 1013.0 |
| 20260831171050 | 20 | 273 | 11.3 | 29.0 | 0.00 | 1.14 | 0.48 | 72 | 1012.8 |
| 20260831170050 | 20 | 261 | 9.7 | 20.9 | 0.00 | 1.14 | 0.48 | 73 | 1012.7 |
| 20260831165550 | 20 | 273 | 12.9 | 24.1 | 0.00 | 1.14 | 0.48 | 72 | 1012.7 |
| 20260831165050 | 20 | 271 | 11.3 | 20.9 | 0.00 | 1.14 | 0.48 | 72 | 1012.7 |
| 20260831164550 | 20 | 266 | 6.4 | 20.9 | 0.00 | 1.14 | 0.48 | 72 | 1012.7 |
| 20260831162550 | 20 | 281 | 14.5 | 24.1 | 0.00 | 1.14 | 0.48 | 73 | 1012.5 |
| 20260831162050 | 20 | 288 | 16.1 | 27.4 | 0.00 | 1.14 | 0.48 | 74 | 1012.5 |
| 20260831160050 | 20 | 293 | 11.3 | 22.5 | 0.00 | 1.14 | 0.48 | 75 | 1012.2 |
| 20260831155549 | 20 | 288 | 8.0 | 19.3 | 0.00 | 1.14 | 0.48 | 75 | 1012.2 |
| 20260831151550 | 20 | 288 | 12.9 | 32.2 | 0.00 | 1.14 | 0.48 | 73 | 1011.9 |
| 20260831151051 | 20 | 277 | 11.3 | 35.4 | 0.00 | 1.14 | 0.48 | 73 | 1011.8 |
| 20260831150050 | 20 | 246 | 16.1 | 32.2 | 0.00 | 1.14 | 0.48 | 72 | 1011.7 |
| 20260831145550 | 20 | 290 | 11.3 | 32.2 | 0.00 | 1.14 | 0.48 | 72 | 1011.7 |
| 20260831143051 | 19 | 297 | 9.7 | 19.3 | 0.00 | 1.14 | 0.48 | 77 | 1011.3 |
| 20260831142550 | 18 | 269 | 8.0 | 16.1 | 0.00 | 1.14 | 0.48 | 78 | 1011.2 |
| 20260831142050 | 18 | 289 | 11.3 | 25.7 | 0.00 | 1.14 | 0.48 | 78 | 1011.2 |
| 20260831141549 | 18 | 277 | 9.7 | 20.9 | 0.00 | 1.14 | 0.48 | 78 | 1011.1 |
| 20260831141051 | 18 | 294 | 9.7 | 22.5 | 0.00 | 1.14 | 0.48 | 79 | 1011.1 |
| 20260831140050 | 18 | 250 | 11.3 | 22.5 | 0.00 | 1.14 | 0.48 | 79 | 1010.8 |
| 20260831135550 | 18 | 257 | 11.3 | 24.1 | 0.00 | 1.14 | 0.48 | 78 | 1010.8 |
| 20260831134051 | 18 | 278 | 16.1 | 32.2 | 0.00 | 1.14 | 0.48 | 75 | 1010.6 |
| 20260831132550 | 19 | 271 | 12.9 | 25.7 | 0.00 | 1.14 | 0.48 | 73 | 1010.3 |
| 20260831132051 | 19 | 279 | 12.9 | 29.0 | 0.00 | 1.14 | 0.48 | 73 | 1010.3 |
| 20260831131549 | 19 | 279 | 12.9 | 37.0 | 0.00 | 1.14 | 0.48 | 73 | 1010.2 |
| 20260831131050 | 19 | 280 | 16.1 | 37.0 | 0.00 | 1.14 | 0.48 | 73 | 1010.1 |
| 20260831124550 | 19 | 248 | 11.3 | 27.4 | 0.00 | 1.14 | 0.48 | 73 | 1009.8 |
| 20260831124051 | 19 | 261 | 9.7 | 35.4 | 0.00 | 1.14 | 0.48 | 75 | 1009.7 |
| 20260831122051 | 19 | 259 | 16.1 | 35.4 | 0.13 | 1.14 | 0.48 | 75 | 1009.5 |
| 20260831121549 | 19 | 269 | 12.9 | 24.1 | 0.15 | 1.14 | 0.48 | 80 | 1009.4 |
| 20260831121051 | 18 | 252 | 11.3 | 24.1 | 0.18 | 1.14 | 0.48 | 83 | 1009.2 |
| 20260831120049 | 17 | 270 | 11.3 | 22.5 | 0.20 | 1.14 | 0.48 | 88 | 1009.1 |
| 20260831115549 | 17 | 255 | 11.3 | 27.4 | 0.20 | 1.14 | 0.48 | 90 | 1009.1 |
| 20260831115050 | 17 | 229 | 9.7 | 16.1 | 0.20 | 1.14 | 0.48 | 90 | 1009.1 |
| 20260831114550 | 16 | 233 | 6.4 | 14.5 | 0.20 | 1.14 | 0.48 | 90 | 1009.1 |
| 20260831114050 | 16 | 246 | 8.0 | 14.5 | 0.23 | 1.14 | 0.48 | 90 | 1009.1 |
| 20260831112050 | 16 | 252 | 16.1 | 25.7 | 0.10 | 1.02 | 0.36 | 88 | 1009.1 |
| 20260831111550 | 16 | 247 | 11.3 | 27.4 | 0.08 | 0.99 | 0.33 | 87 | 1009.0 |
| 20260831111050 | 16 | 254 | 12.9 | 27.4 | 0.10 | 0.97 | 0.30 | 87 | 1009.0 |
| 20260831110050 | 17 | 238 | 16.1 | 32.2 | 0.08 | 0.94 | 0.28 | 85 | 1008.9 |
| 20260831105549 | 17 | 263 | 9.7 | 27.4 | 0.08 | 0.94 | 0.28 | 84 | 1008.8 |
| 20260831105050 | 17 | 255 | 14.5 | 27.4 | 0.08 | 0.94 | 0.28 | 83 | 1008.7 |
| 20260831104549 | 17 | 259 | 11.3 | 22.5 | 0.08 | 0.94 | 0.28 | 83 | 1008.6 |
| 20260831104050 | 17 | 231 | 8.0 | 22.5 | 0.05 | 0.91 | 0.25 | 86 | 1008.5 |
| 20260831103550 | 17 | 279 | 11.3 | 22.5 | 0.05 | 0.91 | 0.25 | 87 | 1008.4 |
| 20260831102050 | 17 | 252 | 9.7 | 24.1 | 0.05 | 0.91 | 0.25 | 84 | 1008.1 |
| 20260831101549 | 17 | 253 | 12.9 | 24.1 | 0.05 | 0.89 | 0.23 | 82 | 1008.2 |
| 20260831101050 | 17 | 298 | 11.3 | 32.2 | 0.00 | 0.86 | 0.20 | 79 | 1008.1 |
| 20260831095550 | 19 | 227 | 11.3 | 27.4 | 0.00 | 0.91 | 0.20 | 77 | 1007.9 |
| 20260831095050 | 18 | 229 | 11.3 | 33.8 | 0.00 | 0.99 | 0.20 | 78 | 1007.7 |
| 20260831093549 | 19 | 224 | 19.3 | 35.4 | 0.00 | 0.99 | 0.20 | 75 | 1007.6 |
| 20260831091050 | 18 | 222 | 9.7 | 33.8 | 0.00 | 0.99 | 0.20 | 77 | 1007.4 |
| 20260831090049 | 18 | 221 | 11.3 | 32.2 | 0.00 | 1.02 | 0.20 | 78 | 1007.2 |
| 20260831085549 | 18 | 223 | 19.3 | 33.8 | 0.00 | 1.02 | 0.20 | 79 | 1007.2 |
| 20260831085050 | 18 | 204 | 14.5 | 35.4 | 0.00 | 1.02 | 0.20 | 80 | 1007.2 |
| 20260831084549 | 18 | 223 | 11.3 | 32.2 | 0.03 | 1.02 | 0.20 | 81 | 1007.3 |
| 20260831081551 | 18 | 198 | 14.5 | 27.4 | 0.05 | 1.07 | 0.20 | 83 | 1007.0 |
| 20260831081050 | 18 | 248 | 16.1 | 33.8 | 0.05 | 1.07 | 0.20 | 84 | 1007.0 |
| 20260831080049 | 17 | 234 | 16.1 | 33.8 | 0.05 | 1.14 | 0.20 | 86 | 1006.7 |
| 20260831075549 | 17 | 241 | 20.9 | 38.6 | 0.05 | 1.17 | 0.20 | 86 | 1006.8 |
| 20260831074549 | 17 | 219 | 16.1 | 25.7 | 0.03 | 1.17 | 0.18 | 86 | 1006.6 |
| 20260831073050 | 17 | 207 | 14.5 | 27.4 | 0.03 | 1.14 | 0.15 | 86 | 1006.5 |
| 20260831072549 | 17 | 258 | 12.9 | 32.2 | 0.03 | 1.14 | 0.15 | 87 | 1006.5 |
| 20260831072050 | 17 | 216 | 11.3 | 29.0 | 0.03 | 1.14 | 0.15 | 88 | 1006.6 |
| 20260831071549 | 17 | 196 | 14.5 | 27.4 | 0.03 | 1.14 | 0.15 | 89 | 1006.7 |
| 20260831071050 | 17 | 208 | 11.3 | 29.0 | 0.03 | 1.14 | 0.15 | 90 | 1006.7 |
| 20260831063549 | 17 | 207 | 4.8 | 22.5 | 0.08 | 1.17 | 0.15 | 90 | 1007.0 |
| 20260831063049 | 17 | 210 | 6.4 | 16.1 | 0.10 | 1.17 | 0.15 | 91 | 1007.2 |
| 20260831061049 | 16 | 207 | 9.7 | 19.3 | 0.13 | 1.17 | 0.15 | 91 | 1007.5 |
| 20260831060049 | 17 | 185 | 11.3 | 24.1 | 0.13 | 1.19 | 0.15 | 91 | 1007.6 |
| 20260831055550 | 17 | 237 | 9.7 | 20.9 | 0.13 | 1.19 | 0.15 | 91 | 1007.5 |
| 20260831054049 | 17 | 214 | 11.3 | 24.1 | 0.08 | 1.19 | 0.10 | 89 | 1007.0 |
| 20260831053549 | 17 | 238 | 11.3 | 24.1 | 0.05 | 1.17 | 0.05 | 89 | 1007.0 |
| 20260831043549 | 17 | 203 | 6.4 | 16.1 | 0.00 | 1.17 | 0.03 | 87 | 1007.1 |
| 20260831043050 | 17 | 213 | 9.7 | 20.9 | 0.00 | 1.17 | 0.03 | 88 | 1007.2 |
| 20260831040049 | 17 | 230 | 4.8 | 16.1 | 0.00 | 1.17 | 0.03 | 88 | 1007.0 |
| 20260831035549 | 17 | 203 | 8.0 | 19.3 | 0.00 | 1.17 | 0.03 | 88 | 1007.0 |
| 20260831035049 | 17 | 229 | 8.0 | 16.1 | 0.00 | 1.17 | 0.03 | 88 | 1007.0 |
| 20260831034550 | 17 | 212 | 8.0 | 19.3 | 0.00 | 1.17 | 0.03 | 88 | 1007.0 |
| 20260831033049 | 17 | 207 | 6.4 | 12.9 | 0.00 | 1.17 | 0.03 | 88 | 1007.1 |
| 20260831032548 | 17 | 215 | 4.8 | 14.5 | 0.00 | 1.19 | 0.03 | 88 | 1007.1 |
| 20260831032049 | 17 | 211 | 8.0 | 16.1 | 0.00 | 1.19 | 0.03 | 88 | 1007.3 |
| 20260831031548 | 17 | 222 | 6.4 | 16.1 | 0.00 | 1.19 | 0.03 | 88 | 1007.3 |
| 20260831031049 | 17 | 248 | 8.0 | 22.5 | 0.00 | 1.19 | 0.03 | 88 | 1007.5 |
| 20260831030048 | 17 | 229 | 9.7 | 16.1 | 0.00 | 1.19 | 0.03 | 88 | 1007.5 |
| 20260831025549 | 17 | 182 | 9.7 | 14.5 | 0.00 | 1.19 | 0.03 | 88 | 1007.6 |
| 20260831025050 | 17 | 238 | 6.4 | 14.5 | 0.00 | 1.19 | 0.03 | 89 | 1007.6 |
| 20260831024549 | 17 | 201 | 6.4 | 14.5 | 0.00 | 1.19 | 0.03 | 89 | 1007.6 |
| 20260831024049 | 17 | 197 | 8.0 | 12.9 | 0.00 | 1.19 | 0.03 | 89 | 1007.6 |
| 20260831023549 | 17 | 224 | 4.8 | 14.5 | 0.00 | 1.19 | 0.03 | 90 | 1007.7 |
| 20260831023049 | 17 | 198 | 4.8 | 19.3 | 0.00 | 1.19 | 0.03 | 90 | 1007.6 |
| 20260831022548 | 17 | 206 | 8.0 | 12.9 | 0.00 | 1.19 | 0.03 | 91 | 1007.6 |
| 20260831022049 | 17 | 207 | 4.8 | 12.9 | 0.00 | 1.19 | 0.03 | 91 | 1007.6 |
| 20260831021548 | 17 | 207 | 4.8 | 11.3 | 0.00 | 1.19 | 0.03 | 92 | 1007.6 |
| 20260831021051 | 17 | 208 | 6.4 | 11.3 | 0.00 | 1.19 | 0.03 | 92 | 1007.6 |
| 20260831015049 | 17 | 206 | 4.8 | 9.7 | 0.00 | 1.19 | 0.03 | 92 | 1007.6 |
| 20260831014548 | 17 | 207 | 4.8 | 9.7 | 0.00 | 1.19 | 0.03 | 92 | 1007.6 |
| 20260831014050 | 17 | 207 | 3.2 | 8.0 | 0.00 | 1.19 | 0.03 | 92 | 1007.6 |
| 20260831013548 | 17 | 207 | 3.2 | 4.8 | 0.00 | 1.19 | 0.03 | 92 | 1007.6 |
| 20260831013049 | 17 | 207 | 1.6 | 4.8 | 0.00 | 1.19 | 0.03 | 92 | 1007.5 |
| 20260831012548 | 17 | 207 | 1.6 | 4.8 | 0.00 | 1.19 | 0.03 | 92 | 1007.6 |
| 20260831012049 | 17 | 207 | 4.8 | 11.3 | 0.00 | 1.19 | 0.03 | 92 | 1007.9 |
| 20260831011549 | 17 | 206 | 4.8 | 9.7 | 0.00 | 1.19 | 0.03 | 92 | 1008.0 |
| 20260831011051 | 17 | 206 | 4.8 | 11.3 | 0.00 | 1.19 | 0.03 | 92 | 1008.0 |
| 20260831010049 | 17 | 205 | 3.2 | 8.0 | 0.00 | 1.19 | 0.03 | 92 | 1008.0 |
| 20260831005548 | 17 | 205 | 3.2 | 11.3 | 0.00 | 1.19 | 0.03 | 92 | 1007.9 |
| 20260831005049 | 17 | 205 | 3.2 | 9.7 | 0.00 | 1.19 | 0.03 | 91 | 1007.9 |
| 20260830235548 | 17 | 213 | 1.6 | 4.8 | 0.03 | 1.63 | 0.03 | 93 | 1008.1 |
| 20260830235048 | 17 | 213 | 3.2 | 9.7 | 0.03 | 1.68 | 0.03 | 93 | 1008.2 |
| 20260830233549 | 17 | 212 | 8.0 | 11.3 | 0.03 | 1.75 | 0.03 | 93 | 1008.5 |
| 20260830233048 | 17 | 204 | 4.8 | 11.3 | 0.03 | 1.75 | 0.03 | 93 | 1008.6 |
| 20260830231548 | 17 | 198 | 6.4 | 12.9 | 0.00 | 1.75 | 0.00 | 94 | 1008.6 |
| 20260830231048 | 17 | 236 | 4.8 | 14.5 | 0.00 | 1.75 | 0.00 | 94 | 1008.6 |
| 20260830224549 | 17 | 172 | 3.2 | 9.7 | 0.00 | 1.75 | 0.00 | 94 | 1008.6 |
| 20260830223049 | 17 | 217 | 0.0 | 0.0 | 0.00 | 1.75 | 0.00 | 94 | 1008.6 |
| 20260830221049 | 17 | 217 | 1.6 | 3.2 | 0.00 | 1.75 | 0.00 | 94 | 1008.9 |
| 20260830215049 | 17 | 217 | 0.0 | 1.6 | 0.10 | 1.78 | 1.78 | 93 | 1009.1 |
| 20260830214548 | 17 | 217 | 1.6 | 3.2 | 0.10 | 1.78 | 1.78 | 93 | 1009.1 |
| 20260830214049 | 17 | 217 | 1.6 | 4.8 | 0.10 | 1.78 | 1.78 | 93 | 1009.1 |
| 20260830213548 | 17 | 217 | 1.6 | 3.2 | 0.10 | 1.78 | 1.78 | 93 | 1009.1 |
| 20260830212049 | 17 | 217 | 1.6 | 3.2 | 0.36 | 1.83 | 1.78 | 93 | 1009.2 |
| 20260830211547 | 17 | 217 | 3.2 | 4.8 | 0.64 | 1.83 | 1.78 | 92 | 1009.4 |
| 20260830211049 | 17 | 217 | 1.6 | 11.3 | 0.66 | 1.83 | 1.78 | 92 | 1009.4 |
| 20260830210048 | 17 | 252 | 6.4 | 14.5 | 0.66 | 1.85 | 1.78 | 92 | 1009.5 |
| 20260830205049 | 17 | 271 | 3.2 | 4.8 | 0.56 | 1.75 | 1.68 | 91 | 1009.6 |
| 20260830203049 | 17 | 271 | 6.4 | 12.9 | 0.53 | 1.75 | 1.65 | 88 | 1009.7 |
| 20260830201049 | 20 | 183 | 1.6 | 4.8 | 0.00 | 1.19 | 1.12 | 80 | 1009.6 |